Regional Weather Roundup
Issued by NWS

Home | Current Version | Previous Version | Graphics & Text | Print | Product List | Glossary On
Versions: 1 2 3 4 5 6 7 8 9 10 11 12 13 14 15 16 17 18 19 20 21 22 23 24 25 26 27 28 29 30 31 32 33 34 35 36 37 38 39 40 41 42 43 44 45 46 47 48 49 50
000
ASUS45 KCYS 061510
RWRWY

WYOMING REGIONAL WEATHER ROUNDUP
NATIONAL WEATHER SERVICE CHEYENNE WY
800 AM MST FRI MAR 06 2015

NOTE:  "FAIR" INDICATES FEW OR NO CLOUDS BELOW 12,000 FEET
WITH NO SIGNIFICANT WEATHER AND/OR OBSTRUCTIONS TO VISIBILITY.

WYZ001-061600-
YELLOWSTONE NATIONAL PARK

CITY           SKY/WX    TMP DP  RH WIND       PRES   REMARKS
LK YELLOWSTONE   N/A      4   0  83 CALM      30.39R
W YELLOWSTONE  NOT AVBL

$$
WYZ002>013-054>058-071-098>099-061600-
NORTHERN WYOMING

CITY           SKY/WX    TMP DP  RH WIND       PRES   REMARKS
JACKSON        SUNNY      9   5  85 NE7       30.41R WCI  -3
CODY           FAIR      43  10  26 W14G24    30.20R
GREYBULL       PTSUNNY   23  17  78 CALM      30.27R
WORLAND        FAIR      23  18  81 CALM      30.25R
SHERIDAN       FAIR      31  18  58 CALM      30.17R
BUFFALO        FAIR      35  16  45 SW7       30.17R WCI  29
GILLETTE       FAIR      38  17  42 SW10      30.17R WCI  31
HULETT         FAIR      37  18  44 SW10      30.16R WCI  30
NEWCASTLE      FAIR      28  18  64 CALM      30.20R

$$
WYZ014>020-022>026-101>103-061600-
CENTRAL WYOMING

CITY           SKY/WX    TMP DP  RH WIND       PRES   REMARKS
BIG PINEY      FAIR      14   9  80 NW5       30.38R WCI   6
PINEDALE       FAIR      16   9  73 NW5       30.37R WCI   9
DUBOIS         FAIR      23  10  58 NW17      30.30R WCI   9
LANDER         FAIR      22  10  60 CALM      30.26R
RIVERTON       FAIR      16   9  74 VRB3      30.26S
CASPER         FAIR      29  16  58 S7        30.24S WCI  22
DOUGLAS        FAIR      21  14  74 NW6       30.24R WCI  13

$$
WYZ021-027>030-104>119-061600-
SOUTHERN WYOMING

CITY           SKY/WX    TMP DP  RH WIND       PRES   REMARKS
EVANSTON       FAIR      24  12  60 SW10      30.40R WCI  14
FORT BRIDGER   FAIR      31  13  48 SW14      30.41R WCI  21
ROCK SPRINGS   FAIR      26  12  55 W22       30.35R WCI  12
DIXON          FAIR      18  11  75 SE8       30.43R WCI   7
RAWLINS        FAIR      26  13  57 W14G21    30.32R WCI  14
SARATOGA       FAIR      21  12  68 SE6       30.35R WCI  14
LARAMIE        FAIR      27  12  53 W8        30.28R WCI  19
CHEYENNE       FAIR      36  12  37 W16       30.24R WCI  26
TORRINGTON     FAIR      34  20  56 W8        30.23R WCI  27
PINE BLUFFS    FAIR      37  18  44 NW16      30.25R WCI  28

$$


USA.gov is the U.S. government's official web portal to all federal, state and local government web resources and services.